| time (UTC) | temp C | wind direction | speed KPH | gust KPH | rain 1hr cm | rain 24hr cm | rain mn cm | humidity % | barometer mb |
| 20260507140108 | 11 | 325 | 3.2 | 14.5 | 0.00 | 1.78 | 1.42 | 92 | 1008.5 |
| 20260507134553 | 10 | 353 | 1.6 | 9.7 | 0.00 | 1.78 | 1.42 | 89 | 1008.3 |
| 20260507133101 | 10 | 355 | 1.6 | 8.0 | 0.00 | 1.78 | 1.42 | 90 | 1008.3 |
| 20260507131535 | 10 | 35 | 1.6 | 11.3 | 0.03 | 1.78 | 1.42 | 89 | 1008.2 |
| 20260507130024 | 9 | 35 | 3.2 | 11.3 | 0.08 | 1.78 | 1.42 | 89 | 1008.1 |
| 20260507124547 | 9 | 27 | 3.2 | 11.3 | 0.08 | 1.78 | 1.42 | 89 | 1008.2 |
| 20260507123036 | 9 | 8 | 6.4 | 17.7 | 0.08 | 1.78 | 1.42 | 90 | 1008.5 |
| 20260507121539 | 8 | 12 | 6.4 | 16.1 | 0.10 | 1.75 | 1.40 | 90 | 1008.8 |
| 20260507120049 | 8 | 26 | 6.4 | 16.1 | 0.10 | 1.70 | 1.35 | 90 | 1008.1 |
| 20260507114529 | 9 | 19 | 8.0 | 20.9 | 0.10 | 1.70 | 1.35 | 91 | 1008.3 |
| 20260507113108 | 9 | 6 | 8.0 | 24.1 | 0.13 | 1.70 | 1.35 | 91 | 1008.2 |
| 20260507111605 | 9 | 347 | 8.0 | 25.7 | 0.08 | 1.65 | 1.30 | 91 | 1008.9 |
| 20260507110025 | 9 | 16 | 8.0 | 20.9 | 0.03 | 1.60 | 1.24 | 91 | 1007.8 |
| 20260507104527 | 9 | 4 | 9.7 | 17.7 | 0.08 | 1.60 | 1.24 | 92 | 1007.3 |
| 20260507103116 | 9 | 17 | 12.9 | 24.1 | 0.13 | 1.57 | 1.22 | 93 | 1007.4 |
| 20260507101609 | 10 | 345 | 16.1 | 29.0 | 0.23 | 1.57 | 1.22 | 94 | 1007.1 |
| 20260507100107 | 10 | 331 | 12.9 | 25.7 | 0.36 | 1.57 | 1.22 | 95 | 1007.0 |
| 20260507094606 | 10 | 360 | 12.9 | 22.5 | 0.41 | 1.52 | 1.17 | 96 | 1006.6 |
| 20260507093105 | 10 | 343 | 9.7 | 22.5 | 0.43 | 1.42 | 1.09 | 96 | 1006.6 |
| 20260507091546 | 10 | 353 | 4.8 | 20.9 | 0.66 | 1.32 | 0.97 | 96 | 1006.9 |
| 20260507090019 | 11 | 3 | 11.3 | 22.5 | 0.81 | 1.22 | 0.86 | 96 | 1006.7 |
| 20260507084523 | 11 | 261 | 0.0 | 4.8 | 0.76 | 1.12 | 0.76 | 96 | 1006.5 |
| 20260507083009 | 11 | 258 | 4.8 | 12.9 | 0.64 | 0.99 | 0.64 | 96 | 1007.2 |
| 20260507081527 | 11 | 327 | 9.7 | 22.5 | 0.28 | 0.64 | 0.28 | 96 | 1006.8 |
| 20260507080023 | 11 | 277 | 8.0 | 19.3 | 0.03 | 0.38 | 0.03 | 96 | 1006.2 |
| 20260507074616 | 11 | 124 | 9.7 | 17.7 | 0.00 | 0.36 | 0.00 | 96 | 1005.9 |
| 20260507073102 | 11 | 124 | 8.0 | 14.5 | 0.00 | 0.36 | 0.00 | 96 | 1005.7 |
| 20260507071521 | 11 | 124 | 9.7 | 19.3 | 0.00 | 0.36 | 0.00 | 96 | 1005.9 |
| 20260507070121 | 11 | 124 | 9.7 | 20.9 | 0.00 | 0.36 | 0.00 | 96 | 1006.2 |
| 20260507064617 | 11 | 124 | 9.7 | 17.7 | 0.00 | 0.36 | 0.00 | 96 | 1006.2 |
| 20260507063026 | 11 | 124 | 4.8 | 14.5 | 0.00 | 0.36 | 0.00 | 96 | 1006.0 |
| 20260507061602 | 11 | 272 | 4.8 | 17.7 | 0.00 | 0.36 | 0.00 | 96 | 1006.2 |
| 20260507054533 | 11 | 282 | 6.4 | 19.3 | 0.00 | 0.36 | 0.00 | 96 | 1006.7 |
| 20260507053025 | 11 | 274 | 9.7 | 24.1 | 0.00 | 0.36 | 0.00 | 96 | 1007.0 |
| 20260507051604 | 11 | 284 | 12.9 | 30.6 | 0.00 | 0.36 | 0.00 | 96 | 1007.0 |
| 20260507050103 | 11 | 264 | 11.3 | 25.7 | 0.00 | 0.36 | 0.00 | 96 | 1007.2 |
| 20260507044600 | 11 | 124 | 16.1 | 37.0 | 0.00 | 0.36 | 0.00 | 96 | 1007.2 |
| 20260507043104 | 11 | 260 | 12.9 | 30.6 | 0.00 | 0.36 | 0.00 | 95 | 1007.1 |
| 20260507041540 | 11 | 274 | 14.5 | 30.6 | 0.00 | 0.36 | 0.00 | 95 | 1007.3 |
| 20260507040034 | 11 | 253 | 17.7 | 33.8 | 0.00 | 0.36 | 0.36 | 95 | 1007.5 |
| 20260507034551 | 11 | 273 | 19.3 | 33.8 | 0.00 | 0.36 | 0.36 | 95 | 1007.6 |
| 20260507033056 | 11 | 124 | 17.7 | 33.8 | 0.00 | 0.36 | 0.36 | 95 | 1007.6 |
| 20260507031618 | 11 | 266 | 17.7 | 32.2 | 0.00 | 0.36 | 0.36 | 95 | 1007.7 |
| 20260507030100 | 11 | 124 | 17.7 | 29.0 | 0.00 | 0.36 | 0.36 | 95 | 1007.5 |
| 20260507024602 | 11 | 273 | 12.9 | 27.4 | 0.00 | 0.36 | 0.36 | 95 | 1007.5 |
| 20260507023100 | 11 | 264 | 14.5 | 29.0 | 0.00 | 0.36 | 0.36 | 95 | 1007.7 |
| 20260507021553 | 12 | 250 | 12.9 | 24.1 | 0.00 | 0.36 | 0.36 | 95 | 1007.9 |
| 20260507020038 | 12 | 124 | 16.1 | 29.0 | 0.00 | 0.36 | 0.36 | 95 | 1008.1 |
| 20260507014605 | 12 | 249 | 11.3 | 29.0 | 0.00 | 0.36 | 0.36 | 95 | 1008.2 |
| 20260507013111 | 12 | 124 | 12.9 | 30.6 | 0.00 | 0.36 | 0.36 | 95 | 1008.4 |
| 20260507011520 | 12 | 255 | 16.1 | 29.0 | 0.03 | 0.36 | 0.36 | 94 | 1008.5 |
| 20260507010004 | 12 | 243 | 12.9 | 35.4 | 0.03 | 0.36 | 0.36 | 95 | 1008.3 |
| 20260507004509 | 12 | 124 | 20.9 | 32.2 | 0.03 | 0.36 | 0.36 | 94 | 1008.3 |
| 20260507003011 | 12 | 124 | 25.7 | 41.8 | 0.03 | 0.36 | 0.36 | 94 | 1008.1 |
| 20260507001504 | 12 | 254 | 20.9 | 38.6 | 0.08 | 0.33 | 0.33 | 94 | 1008.0 |
| 20260507000004 | 12 | 259 | 17.7 | 35.4 | 0.15 | 0.33 | 0.33 | 94 | 1008.0 |
| 20260506234502 | 12 | 210 | 19.3 | 40.2 | 0.23 | 0.33 | 0.33 | 94 | 1008.0 |
| 20260506233104 | 12 | 238 | 16.1 | 29.0 | 0.28 | 0.33 | 0.33 | 94 | 1008.1 |
| 20260506231549 | 12 | 232 | 19.3 | 35.4 | 0.23 | 0.25 | 0.25 | 93 | 1007.9 |
| 20260506230028 | 12 | 207 | 22.5 | 40.2 | 0.18 | 0.18 | 0.18 | 93 | 1008.2 |
| 20260506224530 | 12 | 185 | 19.3 | 37.0 | 0.10 | 0.10 | 0.10 | 93 | 1008.4 |
| 20260506223019 | 12 | 124 | 24.1 | 49.9 | 0.05 | 0.05 | 0.05 | 92 | 1008.5 |
| 20260506221604 | 12 | 232 | 24.1 | 38.6 | 0.03 | 0.03 | 0.03 | 91 | 1008.7 |
| 20260506220007 | 13 | 235 | 22.5 | 40.2 | 0.00 | 0.00 | 0.00 | 90 | 1008.6 |
| 20260506214603 | 13 | 238 | 25.7 | 46.7 | 0.00 | 0.00 | 0.00 | 90 | 1008.4 |
| 20260506213046 | 13 | 211 | 22.5 | 37.0 | 0.00 | 0.00 | 0.00 | 90 | 1008.6 |
| 20260506211611 | 13 | 246 | 22.5 | 43.5 | 0.00 | 0.00 | 0.00 | 90 | 1008.9 |
| 20260506210005 | 13 | 124 | 22.5 | 40.2 | 0.00 | 0.00 | 0.00 | 89 | 1009.0 |
| 20260506204602 | 13 | 231 | 17.7 | 37.0 | 0.00 | 0.00 | 0.00 | 89 | 1009.0 |
| 20260506203108 | 13 | 124 | 24.1 | 40.2 | 0.00 | 0.00 | 0.00 | 88 | 1009.0 |
| 20260506201527 | 13 | 239 | 20.9 | 46.7 | 0.00 | 0.00 | 0.00 | 87 | 1009.2 |
| 20260506200032 | 13 | 270 | 22.5 | 38.6 | 0.00 | 0.00 | 0.00 | 87 | 1009.2 |
| 20260506194546 | 13 | 247 | 19.3 | 40.2 | 0.00 | 0.00 | 0.00 | 87 | 1009.5 |
| 20260506193030 | 13 | 124 | 24.1 | 45.1 | 0.00 | 0.00 | 0.00 | 86 | 1009.6 |
| 20260506191535 | 13 | 124 | 19.3 | 35.4 | 0.00 | 0.00 | 0.00 | 86 | 1009.7 |
| 20260506190039 | 13 | 239 | 19.3 | 41.8 | 0.00 | 0.00 | 0.00 | 86 | 1009.9 |
| 20260506184612 | 14 | 124 | 24.1 | 41.8 | 0.00 | 0.00 | 0.00 | 85 | 1009.7 |
| 20260506183100 | 14 | 124 | 22.5 | 48.3 | 0.00 | 0.00 | 0.00 | 85 | 1010.2 |
| 20260506181505 | 14 | 241 | 22.5 | 38.6 | 0.00 | 0.00 | 0.00 | 85 | 1010.5 |
| 20260506180107 | 14 | 227 | 22.5 | 46.7 | 0.00 | 0.00 | 0.00 | 85 | 1010.7 |
| 20260506174502 | 14 | 268 | 20.9 | 41.8 | 0.00 | 0.00 | 0.00 | 84 | 1011.2 |
| 20260506173006 | 15 | 124 | 22.5 | 38.6 | 0.00 | 0.00 | 0.00 | 84 | 1011.1 |
| 20260506171519 | 15 | 124 | 22.5 | 45.1 | 0.00 | 0.00 | 0.00 | 84 | 1011.2 |
| 20260506170023 | 15 | 124 | 27.4 | 41.8 | 0.00 | 0.00 | 0.00 | 85 | 1011.3 |
| 20260506164537 | 14 | 234 | 24.1 | 45.1 | 0.00 | 0.00 | 0.00 | 85 | 1011.7 |
| 20260506163025 | 14 | 124 | 22.5 | 45.1 | 0.00 | 0.00 | 0.00 | 85 | 1011.7 |
| 20260506161617 | 14 | 124 | 19.3 | 32.2 | 0.00 | 0.00 | 0.00 | 85 | 1012.0 |
| 20260506160113 | 14 | 260 | 19.3 | 37.0 | 0.00 | 0.00 | 0.00 | 85 | 1012.3 |
| 20260506154550 | 14 | 124 | 17.7 | 37.0 | 0.00 | 0.00 | 0.00 | 85 | 1012.6 |
| 20260506153039 | 13 | 272 | 20.9 | 41.8 | 0.00 | 0.00 | 0.00 | 85 | 1012.7 |
| 20260506151554 | 14 | 239 | 19.3 | 37.0 | 0.00 | 0.00 | 0.00 | 85 | 1012.8 |
| 20260506150031 | 14 | 124 | 17.7 | 38.6 | 0.00 | 0.00 | 0.00 | 84 | 1012.7 |
| 20260506144518 | 14 | 250 | 19.3 | 33.8 | 0.00 | 0.00 | 0.00 | 85 | 1012.7 |
| 20260506143015 | 14 | 271 | 14.5 | 30.6 | 0.00 | 0.00 | 0.00 | 86 | 1012.6 |
| 20260506141613 | 13 | 239 | 12.9 | 30.6 | 0.00 | 0.00 | 0.00 | 85 | 1012.5 |